• In Hungary
  • List of Countries
  • For 7 days
  • Water Temperature
  • Satellite Maps
  • Weather Map
  • News
  • Weather Widgets
  • user-avatar
    Login

    Hourly Weather Tachov

    Today, 20 October, Friday

    Time Temperature Precipitation Wind Pressure Humidity
    00:00 +10°C° 0 mm 1 mps 714 mmHg 77%
    01:00 +9°C° 0 mm 1 mps 714 mmHg 77%
    02:00 +9°C° 0 mm 1 mps 714 mmHg 76%
    03:00 +9°C° 0 mm 1 mps 714 mmHg 75%
    04:00 +9°C° 0 mm 1 mps 714 mmHg 75%
    05:00 +9°C° 0 mm 1 mps 714 mmHg 74%
    06:00 +9°C° 0 mm 1 mps 714 mmHg 74%
    07:00 +8°C° 0 mm 1 mps 714 mmHg 73%
    08:00 +10°C° 0 mm 1 mps 715 mmHg 67%
    09:00 +13°C° 0 mm 1 mps 715 mmHg 62%
    10:00 +15°C° 0 mm 2 mps 715 mmHg 56%
    11:00 +16°C° 0 mm 2 mps 715 mmHg 55%
    12:00 +17°C° 0 mm 2 mps 716 mmHg 54%
    13:00 +18°C° 0 mm 2 mps 716 mmHg 53%
    14:00 +17°C° 0 mm 2 mps 716 mmHg 59%
    15:00 +16°C° 0 mm 2 mps 716 mmHg 65%
    16:00 +15°C° 0 mm 2 mps 715 mmHg 71%
    17:00 +15°C° 0 mm 2 mps 716 mmHg 74%
    18:00 +14°C° 0 mm 2 mps 716 mmHg 77%
    19:00 +13°C° 0 mm 2 mps 716 mmHg 80%
    20:00 +13°C° 0.1 mm 2 mps 716 mmHg 82%
    21:00 +12°C° 0.1 mm 2 mps 716 mmHg 84%
    22:00 +12°C° 0.1 mm 2 mps 716 mmHg 85%
    23:00 +12°C° 0 mm 2 mps 716 mmHg 88%

    Tomorrow, 21 October, Saturday

    Time Temperature Precipitation Wind Pressure Humidity
    00:00 +10°C° 0 mm 2 mps 716 mmHg 90%
    01:00 +10°C° 0 mm 2 mps 716 mmHg 92%
    02:00 +10°C° 0 mm 2 mps 716 mmHg 94%
    03:00 +9°C° 0 mm 2 mps 716 mmHg 95%
    04:00 +9°C° 0 mm 2 mps 716 mmHg 96%
    05:00 +9°C° 0 mm 2 mps 716 mmHg 95%
    06:00 +10°C° 0 mm 2 mps 716 mmHg 95%
    07:00 +10°C° 0 mm 2 mps 716 mmHg 94%
    08:00 +12°C° 0 mm 2 mps 716 mmHg 90%
    09:00 +12°C° 0 mm 3 mps 716 mmHg 86%
    10:00 +13°C° 0 mm 3 mps 716 mmHg 82%
    11:00 +14°C° 0 mm 3 mps 716 mmHg 78%
    12:00 +16°C° 0 mm 3 mps 715 mmHg 74%
    13:00 +15°C° 0 mm 4 mps 715 mmHg 70%
    14:00 +16°C° 0 mm 3 mps 715 mmHg 73%
    15:00 +16°C° 0 mm 2 mps 715 mmHg 75%
    16:00 +16°C° 0 mm 2 mps 714 mmHg 77%
    17:00 +15°C° 0 mm 2 mps 714 mmHg 82%
    18:00 +14°C° 0 mm 2 mps 714 mmHg 86%
    19:00 +13°C° 0 mm 2 mps 714 mmHg 91%
    20:00 +12°C° 0 mm 2 mps 714 mmHg 92%
    21:00 +12°C° 0 mm 2 mps 715 mmHg 93%
    22:00 +12°C° 0 mm 2 mps 715 mmHg 95%
    23:00 +11°C° 1.2 mm 3 mps 715 mmHg 94%

    Day after tomorrow, 22 October, Sunday

    Time Temperature Precipitation Wind Pressure Humidity
    00:00 +11°C° 1.2 mm 3 mps 715 mmHg 93%
    01:00 +10°C° 1.2 mm 4 mps 716 mmHg 92%
    02:00 +10°C° 0.5 mm 4 mps 716 mmHg 92%
    03:00 +10°C° 0.5 mm 4 mps 716 mmHg 92%
    04:00 +8°C° 0.5 mm 4 mps 716 mmHg 92%
    05:00 +9°C° 0.1 mm 3 mps 716 mmHg 92%
    06:00 +8°C° 0.1 mm 3 mps 716 mmHg 92%
    07:00 +8°C° 0.1 mm 3 mps 716 mmHg 93%
    08:00 +8°C° 0 mm 4 mps 716 mmHg 89%
    09:00 +8°C° 0 mm 4 mps 716 mmHg 85%
    10:00 +8°C° 0 mm 4 mps 716 mmHg 82%
    11:00 +10°C° 0 mm 4 mps 716 mmHg 78%
    12:00 +10°C° 0 mm 4 mps 715 mmHg 74%
    13:00 +9°C° 0 mm 5 mps 715 mmHg 71%
    14:00 +10°C° 0.1 mm 4 mps 715 mmHg 73%
    15:00 +9°C° 0.1 mm 3 mps 715 mmHg 76%
    16:00 +8°C° 0.1 mm 3 mps 715 mmHg 78%
    17:00 +8°C° 0 mm 3 mps 715 mmHg 81%
    18:00 +7°C° 0 mm 2 mps 715 mmHg 84%
    19:00 +6°C° 0 mm 2 mps 715 mmHg 87%
    20:00 +5°C° 0 mm 3 mps 715 mmHg 87%
    21:00 +5°C° 0 mm 3 mps 715 mmHg 88%
    22:00 +5°C° 0 mm 3 mps 715 mmHg 88%
    23:00 +5°C° 0 mm 3 mps 715 mmHg 89%

    23 October, Monday

    Time Temperature Precipitation Wind Pressure Humidity
    00:00 +5°C° 0 mm 3 mps 715 mmHg 90%
    01:00 +4°C° 0 mm 3 mps 715 mmHg 91%
    02:00 +4°C° 0.1 mm 3 mps 715 mmHg 90%
    03:00 +5°C° 0.1 mm 3 mps 715 mmHg 90%
    04:00 +5°C° 0.1 mm 3 mps 715 mmHg 89%
    05:00 +5°C° 0.1 mm 3 mps 715 mmHg 89%
    06:00 +4°C° 0.1 mm 3 mps 715 mmHg 90%
    07:00 +4°C° 0.1 mm 3 mps 715 mmHg 90%
    08:00 +5°C° 0 mm 3 mps 716 mmHg 87%
    09:00 +7°C° 0 mm 3 mps 716 mmHg 83%
    10:00 +7°C° 0 mm 3 mps 716 mmHg 80%
    11:00 +8°C° 0 mm 3 mps 716 mmHg 79%
    12:00 +7°C° 0 mm 4 mps 716 mmHg 78%
    13:00 +7°C° 0 mm 4 mps 716 mmHg 77%
    14:00 +8°C° 0.1 mm 3 mps 716 mmHg 80%
    15:00 +8°C° 0.1 mm 3 mps 716 mmHg 83%
    16:00 +8°C° 0.1 mm 3 mps 716 mmHg 86%
    17:00 +8°C° 0.3 mm 3 mps 716 mmHg 88%
    18:00 +7°C° 0.3 mm 3 mps 716 mmHg 90%
    19:00 +7°C° 0.3 mm 3 mps 717 mmHg 92%
    20:00 +7°C° 0.2 mm 3 mps 717 mmHg 92%
    21:00 +7°C° 0.2 mm 3 mps 717 mmHg 92%
    22:00 +7°C° 0.2 mm 3 mps 717 mmHg 93%
    23:00 +7°C° 0 mm 3 mps 717 mmHg 94%

    24 October, Tuesday

    Time Temperature Precipitation Wind Pressure Humidity
    00:00 +7°C° 0 mm 3 mps 717 mmHg 94%
    01:00 +6°C° 0 mm 2 mps 717 mmHg 95%
    02:00 +6°C° 0 mm 2 mps 717 mmHg 96%
    03:00 +6°C° 0 mm 2 mps 717 mmHg 96%
    04:00 +7°C° 0 mm 1 mps 717 mmHg 97%
    05:00 +7°C° 0 mm 1 mps 718 mmHg 97%
    06:00 +7°C° 0 mm 1 mps 718 mmHg 97%
    07:00 +7°C° 0 mm 1 mps 718 mmHg 97%
    08:00 +8°C° 0 mm 1 mps 719 mmHg 93%
    09:00 +9°C° 0 mm 1 mps 719 mmHg 90%
    10:00 +10°C° 0 mm 1 mps 720 mmHg 86%
    11:00 +11°C° 0 mm 1 mps 720 mmHg 83%
    12:00 +11°C° 0 mm 1 mps 720 mmHg 80%
    13:00 +12°C° 0 mm 2 mps 720 mmHg 77%
    14:00 +12°C° 0 mm 1 mps 720 mmHg 79%
    15:00 +12°C° 0 mm 1 mps 720 mmHg 80%
    16:00 +12°C° 0 mm 1 mps 720 mmHg 82%
    17:00 +11°C° 0 mm 1 mps 720 mmHg 85%
    18:00 +10°C° 0 mm 1 mps 721 mmHg 89%
    19:00 +9°C° 0 mm 1 mps 721 mmHg 92%
    20:00 +9°C° 0 mm 1 mps 721 mmHg 93%
    21:00 +8°C° 0 mm 1 mps 721 mmHg 95%
    22:00 +8°C° 0 mm 1 mps 721 mmHg 96%
    23:00 +8°C° 0 mm 1 mps 721 mmHg 96%

    25 October, Wednesday

    Time Temperature Precipitation Wind Pressure Humidity
    00:00 +8°C° 0 mm 1 mps 721 mmHg 97%
    01:00 +9°C° 0 mm 1 mps 721 mmHg 97%
    02:00 +9°C° 0 mm 1 mps 721 mmHg 97%
    03:00 +9°C° 0 mm 1 mps 721 mmHg 97%
    04:00 +9°C° 0 mm 1 mps 721 mmHg 97%
    05:00 +9°C° 0 mm 1 mps 721 mmHg 97%
    06:00 +10°C° 0 mm 1 mps 722 mmHg 97%
    07:00 +10°C° 0 mm 1 mps 722 mmHg 97%
    08:00 +11°C° 0 mm 1 mps 722 mmHg 95%
    09:00 +12°C° 0 mm 2 mps 722 mmHg 93%
    10:00 +13°C° 0 mm 2 mps 723 mmHg 91%
    11:00 +13°C° 0 mm 2 mps 723 mmHg 89%
    12:00 +14°C° 0 mm 2 mps 722 mmHg 88%
    13:00 +14°C° 0 mm 2 mps 722 mmHg 87%
    14:00 +14°C° 0 mm 2 mps 722 mmHg 88%
    15:00 +14°C° 0 mm 2 mps 722 mmHg 89%
    16:00 +14°C° 0 mm 1 mps 722 mmHg 90%
    17:00 +13°C° 0 mm 1 mps 722 mmHg 92%
    18:00 +12°C° 0 mm 1 mps 722 mmHg 94%
    19:00 +11°C° 0 mm 1 mps 723 mmHg 96%
    20:00 +11°C° 0 mm 1 mps 723 mmHg 96%
    21:00 +10°C° 0 mm 1 mps 723 mmHg 96%
    22:00 +10°C° 0 mm 1 mps 723 mmHg 96%
    23:00 +10°C° 0 mm 1 mps 723 mmHg 96%
    Show more